This demonstration page uses our WeatherBlox Daily Observations layout. Learn more.

Left ArrowRight Arrow

Hourly Observations for May 20, 2015

Temp ( °F °C ) Dew Point ( °F °C ) Humidity (%) Winds ( mph kmh ) Pressure ( in mb ) Visibility ( mi km ) Precip ( " mm )
12:17 am 00:17 Partly Cloudy 48 9 34 1 58 58 N 17 28 30.21 1023 10 16.0934 N/A
12:36 am 00:36 Mostly Cloudy 48 9 32 0 54 54 NNE 12 19 30.21 1023 10 16.0934 N/A
12:56 am 00:56 Partly Cloudy 46 8 32 0 57 57 NNE 13 20 30.21 1023 10 16.0934 N/A
1:16 am 01:16 Clear 46 8 32 0 57 57 N 13 20 30.21 1023 10 16.0934 N/A
1:36 am 01:36 Clear 46 8 32 0 57 57 N 10 17 30.21 1023 10 16.0934 N/A
1:56 am 01:56 Clear 45 7 30 -1 57 57 N 10 17 30.21 1023 10 16.0934 N/A
2:16 am 02:16 Clear 45 7 30 -1 57 57 NNE 9 15 30.21 1023 10 16.0934 N/A
2:37 am 02:37 Clear 45 7 27 -3 49 49 NNE 12 19 30.21 1023 10 16.0934 N/A
2:56 am 02:56 Clear 43 6 28 -2 57 57 N 6 9 30.21 1023 10 16.0934 N/A
3:16 am 03:16 Clear 43 6 28 -2 57 57 N 8 13 30.21 1023 10 16.0934 N/A
3:36 am 03:36 Clear 43 6 25 -4 49 49 N 9 15 30.21 1023 10 16.0934 N/A
3:56 am 03:56 Clear 43 6 25 -4 49 49 N 8 13 30.21 1023 10 16.0934 N/A
4:17 am 04:17 Clear 43 6 25 -4 49 49 N 12 19 30.21 1023 10 16.0934 N/A
4:36 am 04:36 Clear 41 5 27 -3 57 57 N 8 13 30.21 1023 10 16.0934 N/A
4:56 am 04:56 Clear 41 5 27 -3 57 57 N 8 13 30.21 1023 10 16.0934 N/A
5:16 am 05:16 Clear 41 5 28 -2 61 61 N 7 11 30.21 1023 10 16.0934 N/A
5:36 am 05:36 Clear 39 4 28 -2 65 65 N 8 13 30.24 1024 10 16.0934 N/A
5:57 am 05:57 Clear 39 4 30 -1 70 70 NNE 6 9 30.24 1024 10 16.0934 N/A
6:16 am 06:16 Clear 39 4 30 -1 70 70 N 8 13 30.24 1024 10 16.0934 N/A
6:36 am 06:36 Sunny 41 5 28 -2 61 61 NNE 12 19 30.21 1023 10 16.0934 N/A
6:56 am 06:56 Sunny 41 5 28 -2 61 61 NNE 13 20 30.21 1023 10 16.0934 N/A
7:16 am 07:16 Sunny 41 5 28 -2 61 61 NNE 10 17 30.21 1023 10 16.0934 N/A
7:37 am 07:37 Sunny 43 6 28 -2 57 57 NNE 8 13 30.21 1023 10 16.0934 N/A
7:56 am 07:56 Sunny 43 6 28 -2 57 57 NE 10 17 30.21 1023 10 16.0934 N/A
8:16 am 08:16 Sunny 43 6 28 -2 57 57 ENE 9 15 30.21 1023 10 16.0934 N/A
8:36 am 08:36 Sunny 43 6 28 -2 57 57 E 12 19 30.21 1023 10 16.0934 N/A
8:56 am 08:56 Sunny 45 7 27 -3 49 49 E 9 15 30.21 1023 10 16.0934 N/A
9:16 am 09:16 Sunny 45 7 27 -3 49 49 ENE 7 11 30.21 1023 10 16.0934 N/A
9:37 am 09:37 Sunny 46 8 27 -3 46 46 NE 7 11 30.21 1023 10 16.0934 N/A
9:56 am 09:56 Sunny 46 8 27 -3 46 46 NNE 8 13 30.21 1023 10 16.0934 N/A
10:17 am 10:17 Sunny 46 8 27 -3 46 46 NE 10 17 30.21 1023 10 16.0934 N/A
10:37 am 10:37 Sunny 46 8 27 -3 46 46 NE 8 13 30.21 1023 10 16.0934 N/A
10:56 am 10:56 Sunny 46 8 28 -2 50 50 NNE 10 17 30.21 1023 10 16.0934 N/A
11:16 am 11:16 Sunny 48 9 28 -2 46 46 ENE 7 11 30.21 1023 10 16.0934 N/A
11:36 am 11:36 Sunny 48 9 28 -2 46 46 NE 10 17 30.21 1023 10 16.0934 N/A
11:57 am 11:57 Sunny 48 9 28 -2 46 46 NE 8 13 30.21 1023 10 16.0934 N/A
12:16 pm 12:16 Sunny 48 9 28 -2 46 46 ENE 9 15 30.21 1023 10 16.0934 N/A
12:36 pm 12:36 Partly Cloudy 48 9 30 -1 50 50 ENE 8 13 30.18 1022 10 16.0934 N/A
12:56 pm 12:56 Partly Cloudy 50 10 30 -1 47 47 ENE 9 15 30.18 1022 10 16.0934 N/A
1:16 pm 13:16 Sunny 50 10 28 -2 43 43 NE 8 13 30.18 1022 10 16.0934 N/A
1:36 pm 13:36 Sunny 50 10 30 -1 47 47 E 7 11 30.18 1022 10 16.0934 N/A
1:56 pm 13:56 Sunny 50 10 30 -1 47 47 ENE 7 11 30.18 1022 10 16.0934 N/A
2:16 pm 14:16 Sunny 52 11 30 -1 44 44 ENE 3 6 30.18 1022 10 16.0934 N/A
2:36 pm 14:36 Partly Cloudy 50 10 30 -1 47 47 ENE 5 7 30.18 1022 10 16.0934 N/A
2:56 pm 14:56 Mostly Cloudy 52 11 32 0 47 47 ENE 7 11 30.15 1021 10 16.0934 N/A
3:16 pm 15:16 Mostly Cloudy 52 11 32 0 47 47 E 8 13 30.15 1021 10 16.0934 N/A
3:37 pm 15:37 Partly Cloudy 52 11 32 0 47 47 ENE 12 19 30.15 1021 10 16.0934 N/A
3:56 pm 15:56 Partly Cloudy 52 11 32 0 47 47 ENE 12 19 30.12 1020 10 16.0934 N/A
4:16 pm 16:16 Mostly Cloudy 52 11 32 0 47 47 ENE 6 9 30.15 1021 10 16.0934 N/A
4:36 pm 16:36 Partly Cloudy 52 11 34 1 50 50 ENE 9 15 30.15 1021 10 16.0934 N/A
4:56 pm 16:56 Mostly Cloudy 52 11 34 1 50 50 ENE 8 13 30.12 1020 10 16.0934 N/A
5:16 pm 17:16 Mostly Cloudy 52 11 34 1 50 50 NE 10 17 30.12 1020 10 16.0934 N/A
5:36 pm 17:36 Partly Cloudy 52 11 34 1 50 50 ENE 9 15 30.12 1020 10 16.0934 N/A
5:56 pm 17:56 Mostly Cloudy 52 11 36 2 54 54 NE 13 20 30.12 1020 10 16.0934 N/A
6:16 pm 18:16 Cloudy 52 11 37 3 58 58 NE 13 20 30.09 1019 10 16.0934 N/A
6:36 pm 18:36 Partly Cloudy 52 11 36 2 54 54 NE 15 24 30.09 1019 10 16.0934 N/A
6:56 pm 18:56 Sunny 52 11 36 2 54 54 ENE 10 17 30.06 1018 10 16.0934 N/A
7:16 pm 19:16 Partly Cloudy 52 11 36 2 54 54 NE 13 20 30.06 1018 10 16.0934 N/A
7:36 pm 19:36 Partly Cloudy 50 10 36 2 58 58 ENE 12 19 30.06 1018 10 16.0934 N/A
7:56 pm 19:56 Mostly Cloudy 50 10 36 2 58 58 NE 8 13 30.09 1019 10 16.0934 N/A
8:16 pm 20:16 Mostly Cloudy 50 10 36 2 58 58 NNE 6 9 30.09 1019 10 16.0934 N/A
8:36 pm 20:36 Mostly Cloudy 50 10 37 3 62 62 NNE 7 11 30.09 1019 10 16.0934 N/A
8:56 pm 20:56 Mostly Cloudy 50 10 37 3 62 62 N 7 11 30.09 1019 10 16.0934 N/A
9:16 pm 21:16 Cloudy 50 10 39 4 67 67 N 6 9 30.09 1019 10 16.0934 N/A
9:36 pm 21:36 Mostly Cloudy 50 10 39 4 67 67 N 7 11 30.09 1019 10 16.0934 N/A
9:56 pm 21:56 Mostly Cloudy 50 10 41 5 71 71 N 7 11 30.09 1019 10 16.0934 N/A
10:16 pm 22:16 Cloudy 50 10 39 4 67 67 N 7 11 30.09 1019 10 16.0934 N/A
10:36 pm 22:36 Cloudy 50 10 39 4 67 67 N 10 17 30.09 1019 10 16.0934 N/A
10:56 pm 22:56 Mostly Cloudy 48 9 45 7 87 87 NNE 8 13 30.09 1019 10 16.0934 N/A
11:17 pm 23:17 Cloudy 48 9 48 9 100 100 N 10 17 30.09 1019 5 8.0467 N/A
11:36 pm 23:36 Cloudy 46 8 N/A N/A N 14 22 30.09 1019 5 8.0467 N/A
11:56 pm 23:56 Cloudy 46 8 N/A N/A NNE 9 15 30.09 1019 5 8.0467 N/A

Powered by AerisWeather